"read_dt","SO2 (ppb)","flags","PMT voltage (V)","lamp voltage (V)","lamp intensity (Hz)","internal temp (C)","react chamber temp (C)","sample flow (l/min)","pres (mmHg)","SO2 bkg (ppb)","SO2 coefficient"
2016-06-26 00:00:00,2129E-3,5C000400,-0724,0829,12304,028.9,045.5,0.253,756.7,01.16,0.508
2016-06-26 00:01:00,2128E-3,5C000400,-0724,0828,12257,028.9,045.5,0.253,756.8,01.16,0.508
2016-06-26 00:02:00,2142E-3,5C000400,-0724,0828,12252,028.9,045.5,0.253,756.8,01.16,0.508
2016-06-26 00:03:00,2044E-3,5C000400,-0724,0828,12361,028.9,045.5,0.253,756.7,01.16,0.508
2016-06-26 00:04:00,2105E-3,5C000400,-0724,0827,12289,028.9,045.5,0.253,756.7,01.16,0.508
2016-06-26 00:05:00,2037E-3,5C000400,-0724,0828,12292,028.9,045.5,0.253,756.7,01.16,0.508
2016-06-26 00:06:00,1938E-3,5C000400,-0724,0828,12186,028.9,045.5,0.254,756.7,01.16,0.508
2016-06-26 00:07:00,1984E-3,5C000400,-0724,0829,12323,028.9,045.5,0.254,756.7,01.16,0.508
2016-06-26 00:08:00,2180E-3,5C000400,-0724,0828,12332,028.9,045.5,0.253,756.7,01.16,0.508
2016-06-26 00:09:00,2073E-3,5C000400,-0724,0828,12226,028.9,045.5,0.253,756.7,01.16,0.508
2016-06-26 00:10:00,2055E-3,5C000400,-0724,0828,12221,028.9,045.5,0.253,756.7,01.16,0.508
2016-06-26 00:11:00,2087E-3,5C000400,-0724,0828,12197,028.9,045.5,0.253,756.7,01.16,0.508
2016-06-26 00:12:00,1957E-3,5C000400,-0724,0828,12078,028.9,045.5,0.253,756.7,01.16,0.508
2016-06-26 00:13:00,2115E-3,5C000400,-0724,0828,12282,028.9,045.5,0.253,756.7,01.16,0.508
2016-06-26 00:14:00,2022E-3,5C000400,-0724,0827,12273,028.9,045.5,0.253,756.7,01.16,0.508
2016-06-26 00:15:00,2007E-3,5C000400,-0724,0828,12171,028.9,045.5,0.253,756.7,01.16,0.508
2016-06-26 00:16:00,1981E-3,5C000400,-0724,0828,12231,028.9,045.5,0.253,756.7,01.16,0.508
2016-06-26 00:17:00,2035E-3,5C000400,-0724,0828,12134,028.9,045.5,0.253,756.7,01.16,0.508
2016-06-26 00:18:00,2177E-3,5C000400,-0724,0828,12266,028.9,045.5,0.253,756.7,01.16,0.508
2016-06-26 00:19:00,2035E-3,5C000400,-0724,0828,12192,028.9,045.5,0.253,756.7,01.16,0.508
2016-06-26 00:20:00,2039E-3,5C000400,-0724,0828,12222,028.8,045.5,0.253,756.7,01.16,0.508
2016-06-26 00:21:00,2192E-3,5C000400,-0724,0828,12153,028.8,045.5,0.253,756.7,01.16,0.508
2016-06-26 00:22:00,2126E-3,5C000400,-0724,0828,12160,028.8,045.5,0.253,756.7,01.16,0.508
2016-06-26 00:23:00,2134E-3,5C000400,-0724,0827,12322,028.9,045.5,0.253,756.7,01.16,0.508
2016-06-26 00:24:00,2046E-3,5C000400,-0724,0828,12276,028.9,045.5,0.253,756.7,01.16,0.508
2016-06-26 00:25:00,2064E-3,5C000400,-0724,0828,12281,028.8,045.5,0.253,756.7,01.16,0.508
2016-06-26 00:26:00,2077E-3,5C000400,-0724,0827,12144,028.9,045.5,0.253,756.7,01.16,0.508
2016-06-26 00:27:00,1983E-3,5C000400,-0724,0828,12155,028.8,045.5,0.253,756.7,01.16,0.508
2016-06-26 00:28:00,2097E-3,5C000400,-0724,0828,12197,028.9,045.5,0.253,756.7,01.16,0.508
2016-06-26 00:29:00,2077E-3,5C000400,-0724,0829,12145,028.8,045.5,0.253,756.8,01.16,0.508
2016-06-26 00:30:00,1949E-3,5C000400,-0724,0828,12323,028.8,045.5,0.254,756.8,01.16,0.508
2016-06-26 00:31:00,2012E-3,5C000400,-0724,0828,12226,028.9,045.5,0.254,756.8,01.16,0.508
2016-06-26 00:32:00,2005E-3,5C000400,-0724,0828,12172,028.9,045.5,0.254,756.8,01.16,0.508
2016-06-26 00:33:00,2000E-3,5C000400,-0724,0828,12262,028.8,045.4,0.254,756.8,01.16,0.508
2016-06-26 00:34:00,2011E-3,5C000400,-0724,0828,12256,028.8,045.5,0.254,756.7,01.16,0.508
2016-06-26 00:35:00,1989E-3,5C000400,-0724,0828,12247,028.9,045.5,0.253,756.7,01.16,0.508
2016-06-26 00:36:00,1964E-3,5C000400,-0724,0828,12275,028.9,045.5,0.253,756.7,01.16,0.508
2016-06-26 00:37:00,2044E-3,5C000400,-0724,0828,12144,028.8,045.5,0.253,756.7,01.16,0.508
2016-06-26 00:38:00,2068E-3,5C000400,-0724,0828,12128,028.8,045.5,0.253,756.7,01.16,0.508
2016-06-26 00:39:00,2024E-3,5C000400,-0724,0828,12101,028.8,045.5,0.253,756.7,01.16,0.508
2016-06-26 00:40:00,2125E-3,5C000400,-0724,0828,12205,028.9,045.5,0.253,756.7,01.16,0.508
2016-06-26 00:41:00,2116E-3,5C000400,-0724,0828,12289,028.9,045.5,0.253,756.7,01.16,0.508
2016-06-26 00:42:00,2096E-3,5C000400,-0724,0828,12221,028.8,045.5,0.253,756.7,01.16,0.508
2016-06-26 00:43:00,1928E-3,5C000400,-0724,0827,12198,028.8,045.5,0.253,756.7,01.16,0.508
2016-06-26 00:44:00,2075E-3,5C000400,-0724,0828,12267,028.8,045.5,0.253,756.8,01.16,0.508
2016-06-26 00:45:00,1936E-3,5C000400,-0724,0828,12272,028.8,045.5,0.253,756.7,01.16,0.508
2016-06-26 00:46:00,2024E-3,5C000400,-0724,0828,12287,028.8,045.5,0.253,756.7,01.16,0.508
2016-06-26 00:47:00,2032E-3,5C000400,-0724,0828,12199,028.8,045.5,0.253,756.7,01.16,0.508
2016-06-26 00:48:00,2059E-3,5C000400,-0724,0828,12220,028.8,045.5,0.254,756.7,01.16,0.508
2016-06-26 00:49:00,1966E-3,5C000400,-0724,0828,12164,028.8,045.5,0.254,756.7,01.16,0.508
2016-06-26 00:50:00,2069E-3,5C000400,-0724,0828,12184,028.8,045.5,0.254,756.7,01.16,0.508
2016-06-26 00:51:00,2184E-3,5C000400,-0724,0828,12298,028.8,045.5,0.254,756.7,01.16,0.508
2016-06-26 00:52:00,2228E-3,5C000400,-0724,0828,12255,028.9,045.5,0.254,756.7,01.16,0.508
2016-06-26 00:53:00,2182E-3,5C000400,-0724,0828,12282,028.8,045.5,0.253,756.7,01.16,0.508
2016-06-26 00:54:00,2011E-3,5C000400,-0724,0828,12151,028.8,045.5,0.253,756.7,01.16,0.508
2016-06-26 00:55:00,2113E-3,5C000400,-0724,0827,12294,028.8,045.5,0.253,756.7,01.16,0.508
2016-06-26 00:56:00,1971E-3,5C000400,-0724,0829,12159,028.8,045.5,0.254,756.6,01.16,0.508
2016-06-26 00:57:00,2016E-3,5C000400,-0724,0827,12260,028.9,045.4,0.254,756.6,01.16,0.508
2016-06-26 00:58:00,2122E-3,5C000400,-0724,0827,12260,028.9,045.5,0.254,756.6,01.16,0.508
2016-06-26 00:59:00,2076E-3,5C000400,-0724,0827,11157,028.9,045.5,0.254,756.6,01.16,0.508
2016-06-26 01:00:00,2121E-3,5C000400,-0724,0829,12014,028.9,045.5,0.253,756.7,01.16,0.508
2016-06-26 01:01:00,2010E-3,5C000400,-0724,0828,12165,028.9,045.5,0.253,756.7,01.16,0.508
2016-06-26 01:02:00,2049E-3,5C000400,-0724,0828,12221,028.9,045.5,0.253,756.7,01.16,0.508
2016-06-26 01:03:00,2008E-3,5C000400,-0724,0827,12179,028.9,045.5,0.253,756.7,01.16,0.508
2016-06-26 01:04:00,2035E-3,5C000400,-0724,0828,12236,028.8,045.5,0.253,756.7,01.16,0.508
2016-06-26 01:05:00,2118E-3,5C000400,-0724,0828,12074,028.9,045.5,0.253,756.7,01.16,0.508
2016-06-26 01:06:00,1991E-3,5C000400,-0724,0828,12231,028.8,045.5,0.253,756.7,01.16,0.508
2016-06-26 01:07:00,2149E-3,5C000400,-0724,0828,12237,028.9,045.5,0.253,756.7,01.16,0.508
2016-06-26 01:08:00,2118E-3,5C000400,-0724,0828,12269,028.9,045.5,0.253,756.7,01.16,0.508
2016-06-26 01:09:00,2110E-3,5C000400,-0724,0828,12367,028.9,045.5,0.254,756.7,01.16,0.508
2016-06-26 01:10:00,2027E-3,5C000400,-0724,0827,12318,028.9,045.5,0.254,756.7,01.16,0.508
2016-06-26 01:11:00,2161E-3,5C000400,-0724,0828,12162,028.9,045.5,0.254,756.7,01.16,0.508
2016-06-26 01:12:00,2208E-3,5C000400,-0724,0827,12102,028.9,045.5,0.253,756.7,01.16,0.508
2016-06-26 01:13:00,2098E-3,5C000400,-0724,0828,12198,028.9,045.5,0.253,756.7,01.16,0.508
2016-06-26 01:14:00,1925E-3,5C000400,-0724,0828,12187,028.9,045.5,0.253,756.7,01.16,0.508
2016-06-26 01:15:00,2013E-3,5C000400,-0724,0828,12229,028.9,045.5,0.253,756.7,01.16,0.508
2016-06-26 01:16:00,2083E-3,5C000400,-0724,0828,12261,028.9,045.5,0.253,756.7,01.16,0.508
2016-06-26 01:17:00,2062E-3,5C000400,-0724,0827,12066,028.9,045.5,0.253,756.7,01.16,0.508
2016-06-26 01:18:00,2090E-3,5C000400,-0724,0828,12247,028.9,045.5,0.253,756.7,01.16,0.508
2016-06-26 01:19:00,2089E-3,5C000400,-0724,0828,12275,028.9,045.5,0.253,756.7,01.16,0.508
2016-06-26 01:20:00,1953E-3,5C000400,-0724,0827,12145,028.8,045.5,0.253,756.7,01.16,0.508
2016-06-26 01:21:00,2044E-3,5C000400,-0724,0827,12051,028.8,045.5,0.253,756.7,01.16,0.508
2016-06-26 01:22:00,1923E-3,5C000400,-0724,0828,12253,028.9,045.5,0.253,756.7,01.16,0.508
2016-06-26 01:23:00,2123E-3,5C000400,-0724,0828,12282,028.8,045.5,0.253,756.7,01.16,0.508
2016-06-26 01:24:00,2050E-3,5C000400,-0724,0827,12177,028.9,045.5,0.253,756.7,01.16,0.508
2016-06-26 01:25:00,2020E-3,5C000400,-0724,0828,12299,028.8,045.5,0.253,756.7,01.16,0.508
2016-06-26 01:26:00,2060E-3,5C000400,-0724,0829,12126,028.9,045.5,0.253,756.7,01.16,0.508
2016-06-26 01:27:00,2090E-3,5C000400,-0724,0828,12238,028.9,045.5,0.253,756.7,01.16,0.508
2016-06-26 01:28:00,2082E-3,5C000400,-0724,0828,12151,028.9,045.4,0.253,756.7,01.16,0.508
2016-06-26 01:29:00,2044E-3,5C000400,-0724,0828,12286,028.9,045.5,0.253,756.7,01.16,0.508
2016-06-26 01:30:00,2002E-3,5C000400,-0724,0827,12183,028.8,045.5,0.253,756.7,01.16,0.508
2016-06-26 01:31:00,2038E-3,5C000400,-0724,0828,12239,028.9,045.5,0.253,756.7,01.16,0.508
2016-06-26 01:32:00,2129E-3,5C000400,-0724,0828,12242,028.8,045.5,0.253,756.7,01.16,0.508
2016-06-26 01:33:00,2090E-3,5C000400,-0724,0827,12163,028.9,045.5,0.253,756.7,01.16,0.508
2016-06-26 01:34:00,1960E-3,5C000400,-0724,0828,12158,028.9,045.5,0.254,756.7,01.16,0.508
2016-06-26 01:35:00,2066E-3,5C000400,-0724,0828,12190,028.9,045.5,0.254,756.7,01.16,0.508
2016-06-26 01:36:00,2046E-3,5C000400,-0724,0828,12112,028.9,045.5,0.253,756.7,01.16,0.508
2016-06-26 01:37:00,2070E-3,5C000400,-0724,0828,12176,028.9,045.4,0.253,756.7,01.16,0.508
2016-06-26 01:38:00,2201E-3,5C000400,-0724,0828,12182,028.9,045.5,0.253,756.7,01.16,0.508
2016-06-26 01:39:00,2118E-3,5C000400,-0724,0828,12275,028.9,045.5,0.253,756.7,01.16,0.508
2016-06-26 01:40:00,2025E-3,5C000400,-0724,0828,12219,028.8,045.5,0.253,756.7,01.16,0.508
2016-06-26 01:41:00,2122E-3,5C000400,-0724,0828,12191,028.8,045.5,0.253,756.7,01.16,0.508
2016-06-26 01:42:00,2213E-3,5C000400,-0724,0827,12205,028.8,045.5,0.253,756.7,01.16,0.508
2016-06-26 01:43:00,1982E-3,5C000400,-0724,0828,12354,028.8,045.5,0.253,756.7,01.16,0.508
2016-06-26 01:44:00,2062E-3,5C000400,-0724,0828,12290,028.9,045.5,0.253,756.7,01.16,0.508
2016-06-26 01:45:00,1981E-3,5C000400,-0724,0827,12225,028.9,045.5,0.253,756.7,01.16,0.508
2016-06-26 01:46:00,2038E-3,5C000400,-0724,0828,12082,028.9,045.5,0.253,756.7,01.16,0.508
2016-06-26 01:47:00,2068E-3,5C000400,-0724,0829,12125,028.9,045.5,0.253,756.7,01.16,0.508
2016-06-26 01:48:00,1850E-3,5C000400,-0724,0827,12276,028.9,045.5,0.253,756.7,01.16,0.508
2016-06-26 01:49:00,2228E-3,5C000400,-0724,0828,12130,028.9,045.5,0.253,756.6,01.16,0.508
2016-06-26 01:50:00,2084E-3,5C000400,-0724,0828,12253,028.9,045.4,0.253,756.6,01.16,0.508
2016-06-26 01:51:00,1951E-3,5C000400,-0724,0828,12216,028.9,045.5,0.254,756.6,01.16,0.508
2016-06-26 01:52:00,2067E-3,5C000400,-0724,0828,12334,028.8,045.5,0.254,756.6,01.16,0.508
2016-06-26 01:53:00,2054E-3,5C000400,-0724,0828,12266,028.8,045.5,0.254,756.6,01.16,0.508
2016-06-26 01:54:00,2037E-3,5C000400,-0724,0828,12324,028.9,045.5,0.254,756.6,01.16,0.508
2016-06-26 01:55:00,2083E-3,5C000400,-0724,0828,12150,028.9,045.4,0.253,756.6,01.16,0.508
2016-06-26 01:56:00,2105E-3,5C000400,-0724,0828,12316,028.9,045.5,0.254,756.5,01.16,0.508
2016-06-26 01:57:00,2154E-3,5C000400,-0724,0828,12200,028.9,045.5,0.254,756.5,01.16,0.508
2016-06-26 01:58:00,2018E-3,5C000400,-0724,0828,12406,028.9,045.5,0.254,756.5,01.16,0.508
2016-06-26 01:59:00,2094E-3,5C000400,-0724,0828,12070,028.9,045.5,0.254,756.5,01.16,0.508
2016-06-26 02:00:00,2007E-3,5C000400,-0724,0828,12184,028.9,045.5,0.253,756.5,01.16,0.508
2016-06-26 02:01:00,2170E-3,5C000400,-0724,0828,12184,028.9,045.5,0.253,756.5,01.16,0.508
2016-06-26 02:02:00,1950E-3,5C000400,-0724,0828,12200,028.9,045.5,0.253,756.4,01.16,0.508
2016-06-26 02:03:00,1991E-3,5C000400,-0724,0828,12135,028.9,045.5,0.253,756.4,01.16,0.508
2016-06-26 02:04:00,2099E-3,5C000400,-0724,0828,12258,028.9,045.5,0.253,756.5,01.16,0.508
2016-06-26 02:05:00,2008E-3,5C000400,-0724,0828,12226,028.9,045.5,0.253,756.4,01.16,0.508
2016-06-26 02:06:00,2122E-3,5C000400,-0724,0828,12321,028.9,045.4,0.253,756.4,01.16,0.508
2016-06-26 02:07:00,2154E-3,5C000400,-0724,0829,12068,028.9,045.5,0.253,756.4,01.16,0.508
2016-06-26 02:08:00,2014E-3,5C000400,-0724,0828,12175,028.9,045.5,0.253,756.4,01.16,0.508
2016-06-26 02:09:00,2042E-3,5C000400,-0724,0828,12129,028.9,045.5,0.253,756.4,01.16,0.508
2016-06-26 02:10:00,2089E-3,5C000400,-0724,0828,12257,028.9,045.5,0.253,756.5,01.16,0.508
2016-06-26 02:11:00,2133E-3,5C000400,-0724,0829,12241,028.9,045.5,0.253,756.5,01.16,0.508
2016-06-26 02:12:00,2024E-3,5C000400,-0724,0828,12219,028.9,045.5,0.253,756.5,01.16,0.508
2016-06-26 02:13:00,1953E-3,5C000400,-0724,0828,12364,028.9,045.5,0.253,756.5,01.16,0.508
2016-06-26 02:14:00,1930E-3,5C000400,-0724,0829,12241,028.9,045.5,0.253,756.5,01.16,0.508
2016-06-26 02:15:00,1965E-3,5C000400,-0724,0828,11978,028.9,045.5,0.254,756.5,01.16,0.508
2016-06-26 02:16:00,2110E-3,5C000400,-0724,0828,12272,028.9,045.5,0.254,756.5,01.16,0.508
2016-06-26 02:17:00,1998E-3,5C000400,-0724,0828,12298,028.9,045.5,0.253,756.5,01.16,0.508
2016-06-26 02:18:00,2102E-3,5C000400,-0724,0829,12347,028.9,045.5,0.253,756.5,01.16,0.508
2016-06-26 02:19:00,2163E-3,5C000400,-0724,0828,12180,028.9,045.5,0.253,756.5,01.16,0.508
2016-06-26 02:20:00,2110E-3,5C000400,-0724,0829,12144,028.9,045.5,0.253,756.5,01.16,0.508
2016-06-26 02:21:00,1996E-3,5C000400,-0724,0828,12209,028.9,045.5,0.253,756.5,01.16,0.508
2016-06-26 02:22:00,2029E-3,5C000400,-0724,0828,12314,028.9,045.5,0.253,756.5,01.16,0.508
2016-06-26 02:23:00,2007E-3,5C000400,-0724,0828,12320,028.9,045.5,0.253,756.5,01.16,0.508
2016-06-26 02:24:00,2158E-3,5C000400,-0724,0828,12197,028.9,045.5,0.253,756.5,01.16,0.508
2016-06-26 02:25:00,2158E-3,5C000400,-0724,0828,12275,028.9,045.5,0.253,756.5,01.16,0.508
2016-06-26 02:26:00,1946E-3,5C000400,-0724,0827,12183,028.9,045.5,0.253,756.5,01.16,0.508
2016-06-26 02:27:00,2027E-3,5C000400,-0724,0828,12160,028.9,045.5,0.253,756.5,01.16,0.508
2016-06-26 02:28:00,2100E-3,5C000400,-0724,0828,12207,028.9,045.5,0.253,756.5,01.16,0.508
2016-06-26 02:29:00,2135E-3,5C000400,-0724,0828,12093,028.9,045.5,0.253,756.5,01.16,0.508
2016-06-26 02:30:00,2120E-3,5C000400,-0724,0828,12204,028.9,045.5,0.253,756.5,01.16,0.508
2016-06-26 02:31:00,1965E-3,5C000400,-0724,0828,12133,028.9,045.5,0.253,756.5,01.16,0.508
2016-06-26 02:32:00,2033E-3,5C000400,-0724,0829,12177,028.9,045.5,0.253,756.5,01.16,0.508
2016-06-26 02:33:00,2075E-3,5C000400,-0724,0828,12272,028.9,045.5,0.253,756.5,01.16,0.508
2016-06-26 02:34:00,2162E-3,5C000400,-0724,0828,12117,028.9,045.5,0.253,756.5,01.16,0.508
2016-06-26 02:35:00,2058E-3,5C000400,-0724,0828,12234,028.9,045.5,0.253,756.5,01.16,0.508
2016-06-26 02:36:00,2017E-3,5C000400,-0724,0827,12100,028.9,045.5,0.254,756.4,01.16,0.508
2016-06-26 02:37:00,2166E-3,5C000400,-0724,0829,12159,028.9,045.5,0.254,756.4,01.16,0.508
2016-06-26 02:38:00,2094E-3,5C000400,-0724,0828,12231,028.9,045.5,0.254,756.4,01.16,0.508
2016-06-26 02:39:00,2058E-3,5C000400,-0724,0828,12172,028.9,045.5,0.254,756.4,01.16,0.508
2016-06-26 02:40:00,2036E-3,5C000400,-0724,0828,12215,028.9,045.5,0.254,756.4,01.16,0.508
2016-06-26 02:41:00,2099E-3,5C000400,-0724,0828,12263,028.9,045.5,0.253,756.4,01.16,0.508
2016-06-26 02:42:00,2053E-3,5C000400,-0724,0828,12212,028.9,045.5,0.253,756.4,01.16,0.508
2016-06-26 02:43:00,2123E-3,5C000400,-0724,0828,12314,028.9,045.5,0.253,756.3,01.16,0.508
2016-06-26 02:44:00,2113E-3,5C000400,-0724,0829,12134,028.9,045.5,0.253,756.3,01.16,0.508
2016-06-26 02:45:00,2072E-3,5C000400,-0724,0829,12192,028.9,045.5,0.253,756.4,01.16,0.508
2016-06-26 02:46:00,2097E-3,5C000400,-0724,0828,12246,028.9,045.5,0.253,756.3,01.16,0.508
2016-06-26 02:47:00,2130E-3,5C000400,-0724,0828,12308,028.9,045.5,0.253,756.3,01.16,0.508
2016-06-26 02:48:00,2014E-3,5C000400,-0724,0827,12214,028.9,045.5,0.253,756.3,01.16,0.508
2016-06-26 02:49:00,2019E-3,5C000400,-0724,0828,12150,028.9,045.5,0.253,756.3,01.16,0.508
2016-06-26 02:50:00,1993E-3,5C000400,-0724,0829,12265,028.9,045.4,0.253,756.3,01.16,0.508
2016-06-26 02:51:00,2103E-3,5C000400,-0724,0828,12215,028.9,045.5,0.253,756.3,01.16,0.508
2016-06-26 02:52:00,2073E-3,5C000400,-0724,0828,12186,028.9,045.5,0.253,756.3,01.16,0.508
2016-06-26 02:53:00,2174E-3,5C000400,-0724,0828,12091,028.9,045.5,0.253,756.3,01.16,0.508
2016-06-26 02:54:00,2036E-3,5C000400,-0724,0827,12199,028.9,045.5,0.253,756.3,01.16,0.508
2016-06-26 02:55:00,2000E-3,5C000400,-0724,0828,12268,028.8,045.5,0.254,756.3,01.16,0.508
2016-06-26 02:56:00,2078E-3,5C000400,-0724,0828,12132,028.9,045.5,0.254,756.3,01.16,0.508
2016-06-26 02:57:00,1978E-3,5C000400,-0724,0828,12247,028.9,045.5,0.254,756.2,01.16,0.508
2016-06-26 02:58:00,2036E-3,5C000400,-0724,0828,12134,028.9,045.5,0.254,756.3,01.16,0.508
2016-06-26 02:59:00,2088E-3,5C000400,-0724,0827,12088,028.9,045.5,0.254,756.3,01.16,0.508
2016-06-26 03:00:00,2119E-3,5C000400,-0724,0828,12330,028.9,045.5,0.254,756.3,01.16,0.508
2016-06-26 03:01:00,2152E-3,5C000400,-0724,0828,12295,028.9,045.5,0.254,756.3,01.16,0.508
2016-06-26 03:02:00,2095E-3,5C000400,-0724,0828,12237,028.9,045.5,0.253,756.3,01.16,0.508
2016-06-26 03:03:00,2014E-3,5C000400,-0724,0829,12127,028.9,045.5,0.253,756.3,01.16,0.508
2016-06-26 03:04:00,2048E-3,5C000400,-0724,0829,12199,028.9,045.5,0.253,756.3,01.16,0.508
2016-06-26 03:05:00,2116E-3,5C000400,-0724,0829,12091,028.9,045.5,0.253,756.3,01.16,0.508
2016-06-26 03:06:00,2027E-3,5C000400,-0724,0828,12184,028.9,045.5,0.253,756.3,01.16,0.508
2016-06-26 03:07:00,2041E-3,5C000400,-0724,0828,12243,028.8,045.5,0.253,756.2,01.16,0.508
2016-06-26 03:08:00,2034E-3,5C000400,-0724,0828,12215,028.9,045.5,0.253,756.3,01.16,0.508
2016-06-26 03:09:00,1991E-3,5C000400,-0724,0829,12282,028.9,045.5,0.253,756.2,01.16,0.508
2016-06-26 03:10:00,2003E-3,5C000400,-0724,0828,12246,028.9,045.5,0.253,756.2,01.16,0.508
2016-06-26 03:11:00,2111E-3,5C000400,-0724,0828,12265,028.9,045.5,0.253,756.2,01.16,0.508
2016-06-26 03:12:00,1995E-3,5C000400,-0724,0829,12218,028.9,045.5,0.253,756.2,01.16,0.508
2016-06-26 03:13:00,2038E-3,5C000400,-0724,0828,12167,028.9,045.5,0.253,756.3,01.16,0.508
2016-06-26 03:14:00,2028E-3,5C000400,-0724,0828,12138,028.8,045.5,0.253,756.2,01.16,0.508
2016-06-26 03:15:00,2117E-3,5C000400,-0724,0829,12070,028.9,045.5,0.253,756.2,01.16,0.508
2016-06-26 03:16:00,2053E-3,5C000400,-0724,0828,12208,028.9,045.5,0.253,756.2,01.16,0.508
2016-06-26 03:17:00,2086E-3,5C000400,-0724,0828,12180,028.8,045.5,0.254,756.1,01.16,0.508
2016-06-26 03:18:00,2071E-3,5C000400,-0724,0827,12126,028.9,045.5,0.253,756.2,01.16,0.508
2016-06-26 03:19:00,2095E-3,5C000400,-0724,0828,12241,028.9,045.5,0.253,756.2,01.16,0.508
2016-06-26 03:20:00,2028E-3,5C000400,-0724,0828,12192,028.9,045.5,0.253,756.2,01.16,0.508
2016-06-26 03:21:00,2030E-3,5C000400,-0724,0827,12060,028.9,045.5,0.253,756.2,01.16,0.508
2016-06-26 03:22:00,2042E-3,5C000400,-0724,0827,12199,028.9,045.5,0.253,756.2,01.16,0.508
2016-06-26 03:23:00,2075E-3,5C000400,-0724,0828,12298,028.9,045.5,0.253,756.2,01.16,0.508
2016-06-26 03:24:00,2159E-3,5C000400,-0724,0828,12303,028.9,045.5,0.253,756.2,01.16,0.508
2016-06-26 03:25:00,2010E-3,5C000400,-0724,0828,12253,028.9,045.5,0.253,756.2,01.16,0.508
2016-06-26 03:26:00,2009E-3,5C000400,-0724,0828,12257,028.9,045.5,0.253,756.2,01.16,0.508
2016-06-26 03:27:00,2020E-3,5C000400,-0724,0828,12239,028.9,045.5,0.253,756.2,01.16,0.508
2016-06-26 03:28:00,2045E-3,5C000400,-0724,0828,12245,028.9,045.5,0.253,756.2,01.16,0.508
2016-06-26 03:29:00,2041E-3,5C000400,-0724,0827,12169,028.8,045.4,0.253,756.2,01.16,0.508
2016-06-26 03:30:00,2074E-3,5C000400,-0724,0829,12303,028.9,045.5,0.253,756.2,01.16,0.508
2016-06-26 03:31:00,2039E-3,5C000400,-0724,0828,12181,028.9,045.5,0.254,756.2,01.16,0.508
2016-06-26 03:32:00,2135E-3,5C000400,-0724,0829,12290,028.9,045.5,0.254,756.2,01.16,0.508
2016-06-26 03:33:00,2114E-3,5C000400,-0724,0828,12192,028.8,045.5,0.253,756.2,01.16,0.508
2016-06-26 03:34:00,2038E-3,5C000400,-0724,0829,12206,028.8,045.5,0.253,756.1,01.16,0.508
2016-06-26 03:35:00,2037E-3,5C000400,-0724,0828,12097,028.9,045.5,0.253,756.1,01.16,0.508
2016-06-26 03:36:00,2151E-3,5C000400,-0724,0829,12243,028.9,045.5,0.253,756.1,01.16,0.508
2016-06-26 03:37:00,2082E-3,5C000400,-0724,0827,12042,028.9,045.5,0.253,756.1,01.16,0.508
2016-06-26 03:38:00,1953E-3,5C000400,-0724,0828,12287,028.9,045.5,0.253,756.1,01.16,0.508
2016-06-26 03:39:00,2070E-3,5C000400,-0724,0828,12215,028.9,045.5,0.253,756.1,01.16,0.508
2016-06-26 03:40:00,2076E-3,5C000400,-0724,0828,12254,028.9,045.5,0.253,756.1,01.16,0.508
2016-06-26 03:41:00,1999E-3,5C000400,-0724,0827,12008,028.9,045.5,0.253,756.1,01.16,0.508
2016-06-26 03:42:00,2084E-3,5C000400,-0724,0828,12348,028.9,045.5,0.254,756.0,01.16,0.508
2016-06-26 03:43:00,2185E-3,5C000400,-0724,0829,12310,028.9,045.5,0.254,756.1,01.16,0.508
2016-06-26 03:44:00,2110E-3,5C000400,-0724,0828,12342,028.9,045.5,0.253,756.1,01.16,0.508
2016-06-26 03:45:00,2049E-3,5C000400,-0724,0827,12053,028.9,045.5,0.253,756.1,01.16,0.508
2016-06-26 03:46:00,2186E-3,5C000400,-0724,0828,12090,028.9,045.5,0.253,756.0,01.16,0.508
2016-06-26 03:47:00,2163E-3,5C000400,-0724,0828,12182,028.9,045.5,0.253,756.1,01.16,0.508
2016-06-26 03:48:00,2171E-3,5C000400,-0724,0829,12221,028.9,045.4,0.253,756.1,01.16,0.508
2016-06-26 03:49:00,2065E-3,5C000400,-0724,0828,12236,028.9,045.5,0.253,756.1,01.16,0.508
2016-06-26 03:50:00,2011E-3,5C000400,-0724,0827,12144,028.9,045.5,0.253,756.1,01.16,0.508
2016-06-26 03:51:00,2008E-3,5C000400,-0724,0828,12104,028.9,045.5,0.253,756.1,01.16,0.508
2016-06-26 03:52:00,2062E-3,5C000400,-0724,0828,12282,028.9,045.5,0.253,756.1,01.16,0.508
2016-06-26 03:53:00,2093E-3,5C000400,-0724,0828,12171,028.9,045.5,0.253,756.1,01.16,0.508
2016-06-26 03:54:00,2060E-3,5C000400,-0724,0829,12235,028.9,045.5,0.253,756.1,01.16,0.508
2016-06-26 03:55:00,2091E-3,5C000400,-0724,0828,12331,028.9,045.5,0.254,756.1,01.16,0.508
2016-06-26 03:56:00,2092E-3,5C000400,-0724,0828,12334,028.9,045.5,0.254,756.1,01.16,0.508
2016-06-26 03:57:00,2026E-3,5C000400,-0724,0828,12326,028.9,045.5,0.254,756.1,01.16,0.508
2016-06-26 03:58:00,2048E-3,5C000400,-0724,0828,12211,028.9,045.5,0.254,756.0,01.16,0.508
2016-06-26 03:59:00,2073E-3,5C000400,-0724,0828,12144,028.9,045.5,0.254,756.0,01.16,0.508
2016-06-26 04:00:00,2028E-3,5C000400,-0724,0828,12102,028.9,045.4,0.253,756.0,01.16,0.508
2016-06-26 04:01:00,2098E-3,5C000400,-0724,0828,12300,028.9,045.5,0.253,756.0,01.16,0.508
2016-06-26 04:02:00,2085E-3,5C000400,-0724,0828,12105,028.9,045.5,0.253,756.0,01.16,0.508
2016-06-26 04:03:00,2138E-3,5C000400,-0724,0828,12263,028.9,045.5,0.253,756.0,01.16,0.508
2016-06-26 04:04:00,2090E-3,5C000400,-0724,0828,12209,028.9,045.4,0.253,756.0,01.16,0.508
2016-06-26 04:05:00,2059E-3,5C000400,-0724,0828,12164,028.9,045.5,0.253,756.0,01.16,0.508
2016-06-26 04:06:00,2090E-3,5C000400,-0724,0828,12161,028.9,045.5,0.253,755.9,01.16,0.508
2016-06-26 04:07:00,2220E-3,5C000400,-0724,0827,12215,028.9,045.4,0.253,756.0,01.16,0.508
2016-06-26 04:08:00,2000E-3,5C000400,-0724,0828,12231,028.9,045.4,0.253,756.0,01.16,0.508
2016-06-26 04:09:00,2089E-3,5C000400,-0724,0828,12252,028.9,045.5,0.253,756.0,01.16,0.508
2016-06-26 04:10:00,2073E-3,5C000400,-0724,0828,12273,028.9,045.5,0.253,756.0,01.16,0.508
2016-06-26 04:11:00,2026E-3,5C000400,-0724,0828,12087,028.9,045.5,0.253,756.0,01.16,0.508
2016-06-26 04:12:00,2141E-3,5C000400,-0724,0828,12262,028.9,045.5,0.253,756.0,01.16,0.508
2016-06-26 04:13:00,2034E-3,5C000400,-0724,0828,12246,028.9,045.5,0.253,756.0,01.16,0.508
2016-06-26 04:14:00,2080E-3,5C000400,-0724,0828,12271,028.9,045.5,0.253,756.0,01.16,0.508
2016-06-26 04:15:00,1876E-3,5C000400,-0724,0827,12078,028.9,045.5,0.253,756.0,01.16,0.508
2016-06-26 04:16:00,2175E-3,5C000400,-0724,0828,12317,028.9,045.4,0.253,756.0,01.16,0.508
2016-06-26 04:17:00,2231E-3,5C000400,-0724,0827,12188,028.9,045.5,0.253,756.0,01.16,0.508
2016-06-26 04:18:00,1930E-3,5C000400,-0724,0827,12110,028.9,045.5,0.253,756.0,01.16,0.508
2016-06-26 04:19:00,2027E-3,5C000400,-0724,0827,12176,028.9,045.5,0.253,756.0,01.16,0.508
2016-06-26 04:20:00,2191E-3,5C000400,-0724,0828,12141,028.9,045.5,0.253,756.0,01.16,0.508